Date_and_time,latitude,longitude,wind_speed,RelWindDirFrom,WindDirFrom,air_pressure,air_temperature,relative_humidity,Temp,platform_speed_wrt_ground,air_pressure_at_mean_sea_level,platform_orientation
2019-06-20 23:40,50.630445,-96.980765,5.8,7.2,153,981.72,25.1,35,21.88,0.0,1007.08,3.2
2019-06-20 23:50,50.63045,-96.9807616666667,5.5,6.8,141,981.75,25.3,36,21.96,0.0,1007.09,3.2
2019-06-21 00:00,50.630455,-96.9807566666667,5.5,7.6,148,981.83,25.2,33,22.30,0.0,1007.18,167.4
2019-06-21 00:10,50.6304583333333,-96.9807616666667,4.2,5.3,136,981.89,25.6,38,22.39,0.0,1007.23,167.4
2019-06-21 00:20,50.6304466666667,-96.9807733333333,4.2,4.9,118,981.95,26.0,41,22.29,0.0,1007.26,167.4
2019-06-21 00:30,50.6304483333333,-96.9807783333333,3.3,5.1,93,982.03,26.4,44,22.45,0.0,1007.32,167.4
2019-06-21 00:40,50.6304516666667,-96.980775,6.0,8.1,68,982.11,25.1,51,22.56,0.0,1007.45,167.4
2019-06-21 00:50,50.630455,-96.980775,4.6,6.2,71,982.15,24.5,52,22.53,0.0,1007.52,167.4
2019-06-21 01:00,50.6304516666667,-96.9807733333333,6.3,7.7,61,982.23,24.0,54,22.63,0.0,1007.62,360.0
2019-06-21 01:10,50.6304516666667,-96.980765,6.3,7.1,61,982.38,23.8,52,22.50,0.0,1007.79,360.0
2019-06-21 01:20,50.6304466666667,-96.9807816666667,5.7,6.4,61,982.43,23.8,51,22.58,0.0,1007.84,360.0
2019-06-21 01:30,50.6304683333333,-96.98076,5.6,7.2,68,982.54,23.9,51,22.64,0.0,1007.95,360.0
2019-06-21 01:40,50.6304583333333,-96.98077,6.0,8.0,73,982.68,24.0,49,22.45,0.0,1008.08,360.0
2019-06-21 01:50,50.6304566666667,-96.980765,8.0,10.1,68,982.78,24.0,49,22.45,0.0,1008.18,360.0
2019-06-21 02:00,50.6304533333333,-96.9807483333333,7.5,9.1,77,982.91,23.9,52,22.39,0.0,1008.31,137.2
2019-06-21 02:10,50.6304483333333,-96.9807583333333,6.1,7.9,93,983.03,23.7,55,22.33,0.0,1008.42,137.2
2019-06-21 02:20,50.63044,-96.9807716666667,8.5,13.1,163,983.18,23.5,45,22.36,0.0,1008.56,137.2
2019-06-21 02:30,50.6304466666667,-96.9807583333333,7.9,9.8,190,983.40,23.1,46,22.56,0.0,1008.86,137.2
2019-06-21 02:40,50.63047,-96.980735,6.2,8.5,191,983.53,22.6,44,22.69,0.0,1009.04,137.2
2019-06-21 02:50,50.6304333333333,-96.98077,5.8,7.2,203,983.61,22.4,42,22.82,0.0,1009.16,137.2
2019-06-21 03:00,50.6304333333333,-96.9807533333333,5.7,8.1,205,983.73,22.2,41,22.91,0.0,1009.30,152.4
2019-06-21 03:10,50.63046,-96.9807833333333,5.3,6.9,208,983.82,21.9,41,22.98,0.0,1009.41,152.4
2019-06-21 03:20,50.6304516666667,-96.9807683333333,4.7,5.8,205,983.91,21.7,42,23.00,0.0,1009.50,152.4
2019-06-21 03:30,50.63045,-96.980765,4.2,5.5,204,983.97,21.5,43,23.01,0.0,1009.56,152.4
2019-06-21 03:40,50.6304483333333,-96.980765,3.9,4.8,208,984.02,21.3,43,23.01,0.0,1009.63,152.4
2019-06-21 03:50,50.6304516666667,-96.9807633333333,3.9,5.2,202,984.13,21.1,46,23.00,0.0,1009.76,152.4
2019-06-21 04:00,50.63045,-96.9807633333333,4.0,5.3,196,984.20,20.9,47,22.95,0.0,1009.84,90.0
2019-06-21 04:10,50.6304516666667,-96.980765,4.3,5.9,208,984.30,20.6,47,22.95,0.0,1009.97,90.0
2019-06-21 04:20,50.6304316666667,-96.9807783333333,3.9,5.3,210,984.30,20.2,47,22.96,0.0,1010.01,90.0
2019-06-21 04:30,50.6304516666667,-96.9807683333333,3.9,5.5,213,984.38,19.8,50,22.91,0.0,1010.12,90.0
2019-06-21 04:40,50.6304483333333,-96.980765,4.0,5.3,231,984.48,19.5,48,22.90,0.0,1010.25,90.0
2019-06-21 04:50,50.6304483333333,-96.9807683333333,4.3,5.3,245,984.49,19.1,48,22.90,0.0,1010.28,90.0
2019-06-21 05:00,50.6304483333333,-96.98077,3.7,5.1,265,984.38,19.0,49,22.91,0.0,1010.18,240.8
2019-06-21 05:10,50.6304483333333,-96.9807683333333,3.5,4.4,275,984.35,18.8,50,22.90,0.0,1010.17,240.8
2019-06-21 05:20,50.6304483333333,-96.9807683333333,4.1,5.1,277,984.38,18.7,50,22.90,0.0,1010.22,240.8
2019-06-21 05:30,50.6304483333333,-96.9807683333333,4.0,5.0,280,984.30,18.6,51,22.88,0.0,1010.16,240.8
2019-06-21 05:40,50.63044,-96.9807716666667,3.0,4.1,292,984.27,18.4,53,22.88,0.0,1010.14,240.8
2019-06-21 05:50,50.630445,-96.98077,4.1,6.0,311,984.12,18.6,52,22.87,0.0,1009.99,240.8
2019-06-21 06:00,50.63045,-96.9807683333333,4.1,5.4,328,984.00,18.8,53,22.86,0.0,1009.86,345.5
2019-06-21 06:10,50.63045,-96.980765,4.1,5.7,333,983.99,18.6,54,22.85,0.0,1009.88,345.5
2019-06-21 06:20,50.63043,-96.9807566666667,4.5,5.6,341,983.94,18.4,56,22.85,0.0,1009.86,345.5
2019-06-21 06:30,50.630435,-96.98076,5.1,6.9,337,984.01,18.5,57,22.82,0.0,1009.94,345.5
2019-06-21 06:40,50.6304366666667,-96.9807633333333,3.9,6.0,322,984.16,18.4,56,22.61,0.0,1010.12,345.5
2019-06-21 06:50,50.63044,-96.9807683333333,3.8,5.1,337,984.06,18.2,58,22.73,0.0,1010.03,345.5
2019-06-21 07:00,50.6304416666667,-96.9807633333333,2.9,4.8,315,984.42,18.0,58,22.69,0.0,1010.42,360.0
2019-06-21 07:10,50.63044,-96.9807633333333,3.5,5.3,321,984.82,18.1,58,22.56,0.0,1010.82,360.0
2019-06-21 07:20,50.6304716666667,-96.980785,4.4,5.6,331,984.88,18.0,59,22.63,0.0,1010.90,360.0
2019-06-21 07:30,50.630445,-96.9807683333333,3.4,5.3,329,984.91,17.9,59,22.49,0.0,1010.94,360.0
2019-06-21 07:40,50.6304416666667,-96.9807666666667,3.3,4.5,343,984.98,17.5,61,22.58,0.0,1011.01,360.0
2019-06-21 07:50,50.6304433333333,-96.980765,3.8,4.8,339,985.20,17.6,60,22.25,0.0,1011.24,360.0
2019-06-21 08:00,50.6304416666667,-96.980765,4.1,5.8,334,985.42,17.4,61,21.78,0.0,1011.48,360.0
2019-06-21 08:10,50.6304416666667,-96.980765,4.5,5.8,335,985.45,17.5,62,21.93,0.0,1011.51,360.0
2019-06-21 08:20,50.63044,-96.9807666666667,3.6,5.0,339,985.50,17.6,64,21.44,0.0,1011.56,360.0
2019-06-21 08:30,50.63044,-96.980765,4.5,6.0,336,985.51,17.7,64,20.76,0.0,1011.57,360.0
2019-06-21 08:40,50.6304416666667,-96.9807666666667,4.9,6.7,331,985.63,17.7,63,20.51,0.0,1011.70,360.0
2019-06-21 08:50,50.6304416666667,-96.9807683333333,3.2,4.9,323,985.69,17.6,63,20.95,0.0,1011.77,360.0
2019-06-21 09:00,50.6304416666667,-96.9807666666667,2.8,4.0,329,985.60,17.3,65,20.42,0.0,1011.69,360.0
2019-06-21 09:10,50.6304416666667,-96.9807666666667,3.4,6.7,2,985.59,17.4,67,20.03,0.0,1011.68,360.0
2019-06-21 09:20,50.6304433333333,-96.9807683333333,9.5,12.0,24,985.44,18.3,70,19.78,0.0,1011.49,360.0
2019-06-21 09:30,50.630455,-96.9807816666667,7.5,9.1,25,985.45,18.7,73,19.72,0.0,1011.49,360.0
2019-06-21 09:40,50.6304466666667,-96.9807733333333,9.5,12.0,23,985.41,18.8,73,19.56,0.0,1011.45,360.0
2019-06-21 09:50,50.63045,-96.98077,8.9,10.8,18,985.51,18.8,74,19.53,0.0,1011.56,360.0
2019-06-21 10:00,50.63045,-96.9807716666667,8.5,9.7,34,985.51,18.8,75,19.78,0.0,1011.56,360.0
2019-06-21 10:10,50.63045,-96.9807716666667,7.6,8.6,38,985.39,18.7,80,19.92,0.0,1011.43,360.0
2019-06-21 10:20,50.6304483333333,-96.9807716666667,6.4,7.4,36,985.45,18.7,85,19.81,0.0,1011.49,360.0
2019-06-21 10:30,50.63045,-96.9807733333333,6.1,7.2,31,985.65,18.8,83,19.78,0.0,1011.69,360.0
2019-06-21 10:40,50.6304533333333,-96.9807766666667,5.7,6.6,27,985.50,18.8,81,19.77,0.0,1011.54,360.0
2019-06-21 10:50,50.6304433333333,-96.98076,4.9,5.7,48,985.57,18.9,84,19.95,0.0,1011.63,360.0
2019-06-21 11:00,50.6304416666667,-96.9807583333333,4.0,5.9,78,985.78,19.0,89,20.03,0.0,1011.83,90.0
2019-06-21 11:10,50.6304433333333,-96.9807583333333,3.5,4.8,108,985.95,19.2,86,19.90,0.0,1011.95,90.0
2019-06-21 11:20,50.63043,-96.9807633333333,2.9,3.4,104,985.98,19.4,84,19.79,0.0,1011.95,90.0
2019-06-21 11:30,50.6304333333333,-96.98073,3.2,3.8,93,986.02,19.3,85,19.76,0.0,1012.00,90.0
2019-06-21 11:40,50.630445,-96.98074,3.9,4.6,108,986.20,19.2,84,19.81,0.0,1012.18,90.0
2019-06-21 11:50,50.6304483333333,-96.9807516666667,4.0,5.1,114,986.37,19.2,78,19.69,0.0,1012.36,90.0
2019-06-21 12:00,50.6304516666667,-96.9807566666667,5.6,6.4,106,986.29,19.2,81,19.75,0.0,1012.28,360.0
2019-06-21 12:10,50.63045,-96.98076,6.9,8.2,118,986.19,19.1,79,19.84,0.0,1012.18,360.0
2019-06-21 12:20,50.6304483333333,-96.98076,7.2,8.1,117,986.23,18.8,78,19.69,0.0,1012.24,360.0
2019-06-21 12:30,50.63045,-96.9807616666667,7.9,12.1,130,986.47,18.2,79,19.67,0.0,1012.50,360.0
2019-06-21 12:40,50.63045,-96.9807616666667,8.7,12.0,135,986.54,17.8,78,19.86,0.0,1012.59,360.0
2019-06-21 12:50,50.630445,-96.9807966666667,9.3,11.5,136,986.51,17.5,78,20.42,0.0,1012.57,360.0
2019-06-21 13:00,50.6304316666667,-96.9807616666667,8.3,10.3,136,986.54,17.6,74,20.43,0.0,1012.59,165.5
2019-06-21 13:10,50.6304483333333,-96.9807783333333,7.0,9.7,148,986.60,17.5,73,20.32,0.0,1012.65,165.5
2019-06-21 13:20,50.630445,-96.9807666666667,7.7,10.5,131,986.64,18.4,69,20.76,0.0,1012.65,165.5
2019-06-21 13:30,50.6304466666667,-96.9807716666667,7.2,9.5,126,986.68,18.8,71,20.76,0.0,1012.68,165.5
2019-06-21 13:40,50.630445,-96.9807683333333,5.8,7.1,125,986.75,18.9,72,20.70,0.0,1012.75,165.5
2019-06-21 13:50,50.630445,-96.98077,6.3,7.9,110,986.74,19.0,72,20.49,0.0,1012.73,165.5
2019-06-21 14:00,50.6304433333333,-96.9807666666667,6.2,7.6,110,986.66,19.2,69,20.43,0.0,1012.64,270.0
2019-06-21 14:10,50.6304433333333,-96.9807666666667,6.7,7.7,103,986.71,19.4,69,20.37,0.0,1012.70,270.0
2019-06-21 14:20,50.6304433333333,-96.9807633333333,7.1,9.0,107,986.76,19.6,67,20.42,0.0,1012.77,270.0
2019-06-21 14:30,50.6304366666667,-96.98077,7.1,8.6,113,986.82,19.8,67,20.48,0.0,1012.84,270.0
2019-06-21 14:40,50.6304466666667,-96.9807583333333,7.7,8.9,107,986.63,19.9,67,20.56,0.0,1012.66,270.0
2019-06-21 14:50,50.630445,-96.980765,7.9,10.0,97,986.48,20.2,65,20.72,0.0,1012.49,270.0
2019-06-21 15:00,50.630445,-96.9807683333333,7.9,10.2,98,986.55,20.5,62,20.71,0.0,1012.54,360.0
2019-06-21 15:10,50.630445,-96.98077,7.6,10.2,96,986.63,20.6,62,20.74,0.0,1012.59,360.0
2019-06-21 15:20,50.6304433333333,-96.98077,6.7,9.4,89,986.70,20.8,61,20.82,0.0,1012.63,360.0
2019-06-21 15:30,50.6304433333333,-96.98077,6.4,7.8,81,986.74,20.8,65,20.82,0.0,1012.67,360.0
2019-06-21 15:40,50.6304433333333,-96.9807683333333,7.6,8.8,76,986.54,20.5,67,20.74,0.0,1012.47,360.0
2019-06-21 15:50,50.6304433333333,-96.9807666666667,7.0,8.0,73,986.33,20.4,70,20.89,0.0,1012.25,360.0
2019-06-21 16:00,50.6304433333333,-96.9807666666667,5.9,7.2,69,986.22,20.4,73,20.87,0.0,1012.13,318.7
2019-06-21 16:10,50.6304433333333,-96.9807666666667,6.5,7.5,68,986.10,20.3,76,20.99,0.0,1012.00,318.7
2019-06-21 16:20,50.6304433333333,-96.980765,6.4,8.2,79,986.26,20.8,71,21.04,0.0,1012.13,318.7
2019-06-21 16:30,50.6304433333333,-96.9807666666667,6.9,8.0,80,986.31,21.6,65,21.08,0.0,1012.15,318.7
2019-06-21 16:40,50.6304433333333,-96.9807666666667,6.3,7.8,73,986.31,21.8,67,21.14,0.0,1012.12,318.7
2019-06-21 16:50,50.63043,-96.98076,6.9,9.4,75,986.39,21.9,62,21.31,0.0,1012.18,318.7
2019-06-21 17:00,50.6304366666667,-96.9807633333333,7.2,9.1,78,986.38,22.2,60,21.34,0.0,1012.16,142.0
2019-06-21 17:10,50.63044,-96.9807683333333,6.7,8.3,86,986.45,22.5,57,21.37,0.0,1012.21,142.0
2019-06-21 17:20,50.63044,-96.9807666666667,5.6,7.2,93,986.57,23.1,56,21.43,0.0,1012.30,142.0
2019-06-21 17:30,50.6304416666667,-96.9807683333333,6.3,8.5,102,986.53,23.4,55,21.44,0.0,1012.26,142.0
2019-06-21 17:40,50.6304416666667,-96.9807683333333,9.9,12.6,110,986.41,23.1,54,21.47,0.0,1012.15,142.0
2019-06-21 17:50,50.6304416666667,-96.98077,12.7,15.0,109,986.46,23.0,52,21.55,0.0,1012.22,142.0
2019-06-21 18:00,50.6304416666667,-96.9807766666667,11.8,14.3,111,986.58,23.1,52,21.66,0.0,1012.34,270.0
2019-06-21 18:10,50.6304266666667,-96.9807883333333,12.4,14.8,105,986.61,23.1,52,21.73,0.0,1012.34,270.0
2019-06-21 18:20,50.6304466666667,-96.9807716666667,11.8,14.1,107,986.53,23.0,53,21.73,0.0,1012.23,270.0
2019-06-21 18:30,50.6304466666667,-96.9807783333333,9.7,11.6,112,986.68,22.8,55,21.75,0.0,1012.38,270.0
2019-06-21 18:40,50.6304466666667,-96.9807516666667,8.9,10.3,117,986.69,22.6,57,21.75,0.0,1012.40,270.0
2019-06-21 18:50,50.630445,-96.98076,8.6,12.1,109,986.79,22.7,57,21.72,0.0,1012.48,270.0
2019-06-21 19:00,50.630445,-96.980765,11.0,13.3,111,986.67,22.8,53,21.88,0.0,1012.35,0.0
2019-06-21 19:10,50.6304466666667,-96.9807666666667,13.2,15.0,115,986.57,23.0,50,21.99,0.0,1012.20,0.0
2019-06-21 19:20,50.6304483333333,-96.9807666666667,13.2,15.2,112,986.43,23.2,50,21.95,0.0,1012.04,0.0
2019-06-21 19:30,50.63045,-96.98077,13.3,15.5,110,986.46,23.3,48,21.98,0.0,1012.08,0.0
2019-06-21 19:40,50.6304533333333,-96.9807733333333,12.6,14.4,119,986.40,23.3,48,22.03,0.0,1012.02,0.0
2019-06-21 19:50,50.6304533333333,-96.9807716666667,10.7,12.5,118,986.40,22.9,53,22.05,0.0,1012.04,0.0
2019-06-21 20:00,50.6304466666667,-96.980755,9.7,11.9,117,986.49,22.8,56,22.03,0.0,1012.13,14.5
2019-06-21 20:10,50.6304516666667,-96.9807633333333,10.5,13.5,120,986.60,22.6,53,22.07,0.0,1012.26,14.5
2019-06-21 20:20,50.6304516666667,-96.9807683333333,11.6,14.2,117,986.57,22.7,52,22.07,0.0,1012.23,14.5
2019-06-21 20:30,50.6304533333333,-96.9807683333333,11.7,14.3,125,986.59,22.5,53,22.09,0.0,1012.27,14.5
2019-06-21 20:40,50.63047,-96.98078,11.4,14.7,124,986.62,22.5,52,22.09,0.0,1012.30,14.5
2019-06-21 20:50,50.6304616666667,-96.98077,10.0,13.0,124,986.66,22.4,53,22.09,0.0,1012.33,14.5
2019-06-21 21:00,50.63046,-96.980775,9.2,10.7,122,986.60,22.2,56,22.08,0.0,1012.28,360.0
2019-06-21 21:10,50.6304433333333,-96.98078,9.1,11.4,126,986.64,22.1,55,22.07,0.0,1012.31,360.0
2019-06-21 21:20,50.6304516666667,-96.9807783333333,9.6,11.3,118,986.70,22.2,56,22.06,0.0,1012.37,360.0
2019-06-21 21:30,50.6304516666667,-96.98078,8.5,9.9,104,986.77,22.0,59,22.05,0.0,1012.44,360.0
2019-06-21 21:40,50.6304266666667,-96.980775,9.5,10.6,94,986.72,22.2,56,22.03,0.0,1012.41,360.0
2019-06-21 21:50,50.6304366666667,-96.9807783333333,8.8,10.5,89,986.65,22.3,55,22.04,0.0,1012.34,360.0
2019-06-21 22:00,50.6304416666667,-96.98078,8.4,9.6,85,986.57,22.3,56,22.04,0.0,1012.26,270.0
2019-06-21 22:10,50.63044,-96.9807483333333,9.2,10.6,82,986.47,22.1,59,22.05,0.0,1012.16,270.0
2019-06-21 22:20,50.6304533333333,-96.9807833333333,9.7,11.4,83,986.39,22.1,58,22.06,0.0,1012.09,270.0
2019-06-21 22:30,50.6304483333333,-96.9807766666667,10.2,12.0,84,986.23,22.0,60,22.06,0.0,1011.93,270.0
2019-06-21 22:40,50.6304466666667,-96.980775,9.7,11.3,90,986.25,22.2,57,22.05,0.0,1011.94,270.0
2019-06-21 22:50,50.6304483333333,-96.9807783333333,11.3,15.0,96,986.26,22.2,57,22.05,0.0,1011.96,270.0
2019-06-21 23:00,50.63045,-96.9807816666667,12.2,14.2,104,986.30,22.4,54,22.02,0.0,1012.00,287.7
2019-06-21 23:10,50.630445,-96.980765,11.5,13.4,105,986.26,22.2,57,21.99,0.0,1011.97,287.7
2019-06-21 23:20,50.6304483333333,-96.9807766666667,11.6,17.5,106,986.28,22.0,57,21.97,0.0,1012.00,287.7
2019-06-21 23:30,50.6304466666667,-96.9807783333333,13.9,17.2,114,986.22,22.0,55,21.96,0.0,1011.94,287.7
2019-06-21 23:40,50.6304333333333,-96.980775,18.3,21.9,122,986.05,21.8,55,21.94,0.0,1011.76,287.7
2019-06-21 23:50,50.6304433333333,-96.9807616666667,16.4,20.9,110,986.11,21.8,52,21.94,0.0,1011.82,287.7
